GFSMW_con_lsi_159.txt.gz
Lid_Strength_Index
7 7 7 7 8 8 8 7 6 5 5 4 3 3 3 2 3 3 1 1 2 2 2 1 1 1 1 1 1 1 2 2 1 2 2 1 1 1 1 1 1 1 0
8 8 9 10 10 11 10 10 9 7 7 6 5 3 3 4 3 4 4 5 6 6 6 5 4 4 3 3 2 2 2 2 1 3 3 5 4 3 2 1 1 1 1
9 10 11 12 12 12 11 11 10 9 9 8 5 2 3 4 5 5 7 8 9 9 8 8 6 6 5 6 5 5 3 3 2 2 3 6 6 4 3 2 2 1 1
10 11 12 12 12 13 12 11 11 11 10 10 9 7 7 9 9 8 8 9 9 10 9 8 7 7 6 6 5 4 4 3 3 1 1 1 2 5 6 4 2 2 1
11 12 12 12 13 13 13 13 12 12 12 12 11 10 10 10 10 10 10 10 10 10 10 9 9 8 8 7 7 6 5 5 4 4 2 2 3 4 4 6 4 3 2
12 12 12 13 14 14 14 14 13 13 13 13 13 12 12 13 12 12 12 12 11 11 11 10 10 9 9 8 8 7 6 6 6 6 6 6 6 6 6 6 6 5 4
13 13 14 15 15 15 15 14 14 14 14 14 14 14 13 13 14 13 13 13 13 13 13 12 11 10 9 8 8 7 7 7 8 8 8 7 7 7 8 8 9 9 8
13 14 14 15 15 15 15 15 15 15 14 15 15 15 14 14 14 14 14 14 13 13 12 12 11 10 9 9 8 9 9 9 9 9 9 8 8 8 8 8 9 11 9
13 14 14 15 16 16 16 15 15 15 15 15 15 15 15 15 15 14 14 14 13 12 12 12 12 11 10 10 10 10 10 10 10 10 10 9 9 9 8 8 9 10 12
13 14 15 15 15 15 16 15 15 16 15 15 15 15 15 15 15 14 14 14 13 13 13 12 12 12 11 11 11 11 11 11 11 10 10 10 10 10 9 10 10 10 11
13 14 14 15 15 15 16 16 16 16 16 16 16 15 15 15 15 15 14 14 13 13 13 12 12 12 13 12 13 12 12 12 11 11 11 11 11 11 11 11 10 11 11
12 13 14 14 15 16 16 16 17 16 16 16 15 15 15 15 15 15 14 14 14 13 13 12 12 13 13 13 13 14 13 13 12 12 12 12 12 12 11 11 11 11 11
12 12 14 15 15 16 16 17 17 16 16 15 16 16 16 16 16 15 15 14 14 14 14 13 14 14 13 14 14 14 13 13 13 13 13 13 13 13 13 13 14 13 12
11 12 14 14 15 16 16 17 17 16 16 16 16 16 16 16 16 15 15 15 15 15 15 14 14 14 14 14 14 14 14 14 14 14 14 14 15 14 14 13 13 13 13
11 12 12 14 15 16 16 17 17 17 17 17 17 17 16 16 16 15 15 15 14 15 16 15 15 14 14 13 14 15 15 15 15 15 14 14 14 13 12 13 13 14 15
10 10 11 13 14 15 16 17 17 17 17 18 17 17 16 16 16 16 16 15 15 15 16 16 16 16 14 13 13 14 15 16 16 15 15 14 14 14 13 12 12 13 15
10 10 11 12 13 15 16 17 17 17 17 17 17 16 16 16 16 16 15 16 16 16 17 17 17 17 15 13 13 14 15 16 16 15 16 15 15 14 14 13 14 15 14
10 10 10 13 16 16 17 17 17 17 17 18 17 17 16 16 16 16 16 16 16 16 17 17 17 17 15 13 13 15 16 15 16 15 16 16 16 14 14 15 17 17 16
13 12 13 16 17 18 18 18 18 18 18 18 17 17 17 17 17 17 18 16 16 16 17 17 17 17 17 14 14 15 15 15 17 16 16 16 16 14 14 17 18 18 17
18 18 18 18 19 19 18 18 18 18 18 18 18 17 17 17 18 17 17 17 16 17 17 17 17 17 17 14 14 15 16 17 18 17 17 16 15 14 14 17 18 20 18
19 20 20 20 20 19 18 19 19 19 18 18 18 18 18 18 18 18 17 17 17 17 17 18 18 18 17 16 14 14 16 17 19 18 18 17 15 15 15 16 17 18 18
20 20 20 20 20 18 18 19 20 19 18 19 19 19 19 18 18 18 18 18 18 19 20 20 20 19 18 16 15 15 15 15 20 19 19 18 16 16 17 17 16 17 19
21 20 20 20 19 19 17 20 21 20 20 20 20 20 19 19 19 19 20 21 21 21 20 20 21 21 19 18 16 15 15 15 18 19 18 17 18 18 20 18 18 21 23
20 20 20 21 20 19 19 20 20 20 20 21 21 20 21 20 20 19 20 22 22 21 21 21 23 23 21 19 18 17 19 17 20 22 23 20 20 20 21 23 22 23 23
20 21 22 21 22 22 22 21 21 20 21 21 21 21 21 21 22 21 21 21 21 21 25 26 24 27 26 21 16 17 20 23 19 29 32 29 26 26 26 25 25 24 24
20 20 21 23 23 23 24 23 22 21 21 21 21 22 22 22 22 23 23 18 18 17 17 16 20 23 17 15 16 15 17 17 19 34 37 33 29 28 27 27 27 25 25

GFSMW_con_lsi_162.txt.gz
Lid_Strength_Index
8 8 8 9 9 9 10 10 9 9 8 7 4 3 3 3 4 5 6 6 6 6 5 4 4 3 1 2 2 1 1 2 1 2 2 2 1 1 2 2 2 1 1
9 9 9 10 10 11 12 11 11 10 10 9 6 2 5 4 4 7 8 9 8 8 8 6 6 6 5 5 5 4 3 2 1 3 3 5 4 3 3 1 1 1 2
9 10 10 11 12 12 12 12 12 11 11 11 6 4 4 5 6 7 9 10 10 10 8 8 8 7 6 6 6 6 5 4 3 2 3 6 7 4 3 3 3 2 3
10 11 11 12 13 15 13 12 12 13 12 12 10 8 8 9 9 9 10 10 10 10 10 9 9 9 8 9 8 6 6 5 5 4 3 1 2 5 6 4 3 4 3
11 11 12 13 14 14 14 14 13 14 14 14 12 12 11 10 10 10 11 12 12 12 11 11 10 10 9 9 8 8 8 7 6 5 4 4 6 5 6 7 6 6 5
11 12 13 14 14 14 14 15 15 15 15 15 14 14 14 13 13 13 13 13 13 13 13 12 12 11 10 10 9 8 8 8 8 8 7 8 7 8 8 9 9 9 8
13 14 15 15 15 16 16 15 15 16 16 16 15 15 15 15 15 15 15 15 15 14 14 13 12 12 11 10 10 9 9 9 9 9 9 8 9 8 8 9 10 10 9
13 14 14 15 16 16 16 16 16 16 16 16 16 16 15 15 15 15 15 15 15 14 14 13 12 12 11 10 11 10 10 10 10 10 10 10 9 9 9 9 11 12 11
13 14 15 16 16 16 16 16 16 16 16 17 17 16 16 16 16 16 15 15 15 13 13 13 12 12 12 11 11 11 11 11 11 11 11 10 10 10 10 11 11 11 14
13 14 15 16 16 16 16 16 16 16 16 16 16 16 16 16 16 16 16 15 14 14 13 13 13 13 12 12 12 12 11 11 11 11 12 12 11 11 11 11 11 11 12
13 14 15 15 16 16 17 17 17 17 17 16 16 16 16 16 16 16 15 15 14 14 13 13 13 13 13 13 13 13 12 12 12 12 13 13 12 12 12 11 12 13 13
12 13 14 15 16 17 17 17 17 17 17 16 17 17 17 16 17 16 16 15 15 14 13 13 13 13 13 14 14 14 13 14 14 14 14 14 13 14 14 14 14 14 14
12 13 14 15 16 16 17 17 17 17 17 17 17 17 17 17 17 16 16 15 15 15 14 14 14 14 14 14 14 14 14 14 14 14 15 16 16 15 15 15 14 14 14
11 13 14 14 15 15 16 17 18 18 17 17 18 18 18 17 17 16 16 15 15 15 15 14 14 13 13 14 15 14 15 15 15 15 15 16 16 15 15 14 14 14 15
11 11 12 13 15 15 16 17 17 18 17 18 18 18 17 17 17 16 15 15 15 15 15 15 15 14 13 13 15 15 15 16 16 16 15 15 15 14 14 14 15 15 15
11 10 11 12 13 15 16 17 17 18 18 18 18 18 17 17 16 16 15 15 16 15 15 16 15 15 13 13 14 15 16 16 16 16 16 16 16 15 13 13 14 14 15
11 11 11 11 12 15 16 17 18 17 18 18 17 17 17 16 16 16 15 15 16 16 16 16 16 16 14 13 14 15 16 17 16 17 17 17 16 15 14 14 15 15 15
11 12 12 12 13 16 17 17 18 18 18 18 17 17 17 16 16 15 15 15 16 16 16 17 17 16 15 14 14 15 16 17 17 17 17 17 16 15 15 17 18 17 17
14 15 17 17 18 18 17 17 18 18 18 18 18 17 16 16 16 16 16 16 16 16 17 16 17 17 16 14 14 16 17 17 18 17 17 17 17 15 15 18 19 19 18
17 17 19 19 19 19 18 18 19 19 19 18 17 16 15 16 16 16 16 16 16 16 17 17 17 17 17 15 15 16 17 18 19 18 18 16 16 15 15 18 19 22 20
18 21 22 22 22 20 18 19 20 20 18 17 17 17 16 17 16 17 16 16 17 17 18 19 19 18 18 17 16 15 17 18 20 20 19 18 15 15 16 16 18 19 20
19 19 21 21 22 19 19 19 20 19 18 17 17 17 18 16 16 17 17 17 18 19 19 20 20 20 19 16 16 15 16 16 20 20 19 18 16 17 18 18 17 19 22
20 20 21 21 21 21 19 20 20 18 18 18 18 18 18 17 17 18 19 19 19 19 20 21 22 22 20 19 17 15 15 16 20 20 19 18 19 19 22 19 19 23 25
20 21 21 21 21 21 19 18 18 18 19 19 19 19 19 19 19 19 19 20 21 21 21 22 23 22 20 19 18 18 19 18 23 23 24 21 21 21 22 25 24 25 26
20 21 21 21 22 21 20 19 19 19 19 20 20 20 20 20 20 20 20 20 21 21 22 23 22 25 25 22 16 18 21 25 20 32 33 31 29 28 28 28 28 26 26
21 21 22 22 22 21 21 21 20 19 20 21 21 21 21 22 22 22 22 18 17 16 16 16 21 23 17 15 15 15 17 17 19 34 38 36 35 32 31 31 29 29 28

GFSMW_con_lsi_165.txt.gz
Lid_Strength_Index
9 9 9 9 9 9 9 9 9 9 10 8 5 3 2 4 6 8 8 8 7 6 5 5 4 3 5 5 5 2 1 2 1 2 2 3 2 2 2 2 2 1 1
10 10 10 11 11 11 11 11 10 10 11 10 6 2 5 6 9 9 10 9 9 8 8 7 6 6 5 6 6 5 4 2 2 3 3 5 4 3 3 3 2 3 3
10 11 11 12 12 12 12 12 11 12 13 12 5 3 5 6 9 9 10 10 10 9 9 8 8 7 7 7 7 6 6 5 4 4 5 7 7 5 4 3 4 5 4
11 11 11 13 13 13 13 13 12 13 13 12 8 7 8 10 10 10 11 11 11 11 10 10 10 10 9 9 8 8 8 7 7 6 5 5 4 6 7 4 5 6 5
11 12 12 12 13 13 14 14 14 15 15 13 12 11 10 10 10 11 12 13 13 13 12 12 11 11 10 10 10 10 10 9 8 9 9 8 7 6 8 8 8 8 7
12 12 12 13 14 14 14 14 14 16 15 15 14 14 14 13 13 14 14 15 14 14 14 13 12 12 11 11 11 10 10 11 10 10 10 10 10 10 10 11 10 10 9
13 13 13 14 14 14 14 14 15 16 16 16 16 16 16 15 16 16 16 16 16 15 15 14 13 13 12 12 11 11 11 12 12 11 11 10 10 9 9 9 11 12 10
12 13 13 14 14 15 15 15 16 17 17 17 17 16 16 17 16 16 16 16 16 15 14 14 14 13 12 12 12 12 12 12 12 12 11 11 11 10 11 11 11 14 12
12 12 13 14 15 15 16 16 16 17 17 17 17 17 17 17 17 17 16 16 15 14 14 14 14 14 13 13 13 13 12 12 12 12 12 11 11 11 11 11 12 12 15
12 13 13 14 15 16 16 17 17 17 17 17 17 17 17 17 17 16 16 16 15 15 15 15 15 15 14 14 14 13 12 12 12 12 13 12 12 13 12 13 13 13 14
12 12 13 14 15 17 17 17 17 17 17 17 17 17 17 17 17 17 16 16 15 15 15 15 15 15 15 14 14 13 13 13 13 13 14 14 13 14 14 14 14 15 15
11 12 13 15 16 16 17 17 17 17 17 17 17 17 17 17 17 17 17 16 15 15 15 15 15 15 15 14 14 14 14 14 14 14 15 16 14 15 15 15 15 15 15
11 13 14 15 15 16 17 17 17 17 17 17 17 18 17 18 18 17 17 16 16 15 15 14 15 14 14 14 14 14 14 14 14 15 16 16 15 15 15 15 16 16 16
12 12 13 14 14 16 16 17 17 17 17 17 18 18 18 17 17 17 17 16 16 15 15 15 14 14 14 14 14 14 14 14 15 14 15 16 15 15 15 15 16 16 16
12 12 12 13 14 15 16 17 17 17 17 18 18 18 17 17 17 17 16 16 16 16 15 14 14 13 14 14 14 15 15 15 16 15 15 16 15 14 14 15 16 16 16
12 12 12 12 13 14 15 16 17 17 17 18 18 18 17 17 17 17 17 16 16 16 15 14 14 14 13 13 14 14 16 16 16 17 16 16 16 15 14 15 15 15 17
11 11 11 12 12 12 15 17 17 17 18 18 18 17 17 17 17 16 16 16 16 15 15 15 14 14 14 13 14 14 16 16 17 17 17 17 17 16 16 17 16 17 16
11 12 13 14 14 15 17 17 17 17 18 18 18 18 17 17 16 16 16 16 16 16 16 16 15 15 15 14 15 15 16 18 17 18 17 17 17 16 16 18 19 19 18
12 13 15 16 17 18 18 18 18 18 18 18 18 18 17 17 17 16 16 16 15 15 15 16 16 16 15 14 15 16 17 18 17 18 18 17 17 16 15 19 19 20 19
14 15 18 18 19 19 18 18 18 18 19 18 18 17 17 17 16 16 16 14 15 15 15 16 17 17 17 15 15 17 17 19 19 19 19 17 17 16 15 18 19 23 22
16 20 21 20 20 20 19 19 20 20 19 18 18 18 17 16 16 16 15 15 15 16 18 18 18 18 18 16 15 15 17 19 21 21 20 18 16 16 16 17 19 20 22
18 18 20 20 21 18 18 19 20 19 19 18 17 17 17 16 15 15 15 16 16 18 19 20 20 20 18 16 16 16 16 18 20 20 19 18 17 18 17 18 17 19 23
18 19 20 21 22 20 19 20 21 20 19 18 19 17 17 16 16 16 17 17 18 19 20 20 21 21 20 19 17 16 16 17 20 19 18 18 19 19 22 19 19 23 26
18 20 21 21 21 22 19 20 19 18 19 18 18 18 18 18 17 18 18 18 20 21 21 22 22 22 19 19 18 18 19 19 23 23 24 21 21 21 23 25 25 25 27
20 20 20 21 21 22 22 20 19 18 18 18 19 19 19 19 20 19 20 20 20 20 22 23 22 25 26 22 18 20 23 23 24 33 33 32 29 29 28 29 29 27 28
20 20 21 21 22 21 21 20 18 18 19 20 20 20 20 21 21 22 22 18 18 16 16 17 21 24 18 16 16 16 18 18 20 36 38 36 36 33 33 33 32 31 30

GFSMW_con_lsi_168.txt.gz
Lid_Strength_Index
9 10 10 10 10 10 10 10 9 10 9 7 4 2 3 5 7 8 9 9 9 7 5 6 5 3 4 5 5 4 2 1 2 2 3 4 3 3 2 2 2 4 3
10 11 11 12 12 12 11 11 11 11 10 9 6 3 5 8 8 9 11 10 10 9 8 7 7 7 5 6 6 5 5 3 3 3 4 6 5 4 4 3 5 6 5
10 11 12 12 12 13 13 12 12 12 12 10 5 5 6 7 8 10 11 11 10 10 9 9 8 8 8 8 8 8 7 7 6 6 5 7 8 6 5 5 7 7 7
11 11 12 13 13 14 13 13 13 13 12 11 8 6 7 10 11 12 12 12 12 11 11 11 11 11 10 10 9 9 9 8 8 8 7 5 5 6 8 6 7 8 7
11 12 12 13 13 14 14 14 14 14 13 13 11 10 11 11 11 13 14 14 13 13 13 12 12 12 11 11 11 11 11 11 11 10 10 9 8 7 7 9 9 10 8
13 13 13 13 14 14 14 14 14 15 14 14 14 13 12 13 14 15 15 15 15 14 14 13 13 12 12 12 12 12 12 12 11 11 11 11 12 12 12 12 11 11 10
13 13 14 14 14 14 14 14 15 16 15 15 16 15 15 15 16 16 16 16 16 15 15 14 14 14 13 13 12 13 13 13 12 12 12 12 11 11 11 11 13 13 11
13 13 13 13 14 14 14 15 15 16 16 16 16 16 16 17 17 17 16 16 16 16 15 15 15 14 14 13 13 13 13 13 13 13 13 13 13 12 12 13 13 14 13
13 13 13 13 14 14 14 15 15 16 16 17 17 17 17 17 17 17 17 16 16 14 15 15 15 15 14 14 14 13 13 13 14 14 13 13 13 13 13 13 12 13 15
12 12 12 13 13 14 15 16 16 16 17 17 18 18 18 17 17 17 17 16 16 16 16 16 16 15 15 14 14 14 14 14 14 14 14 14 14 14 14 14 14 14 15
12 12 12 12 13 14 16 16 16 17 18 18 18 18 18 17 17 17 17 16 16 16 16 16 16 16 16 15 15 15 15 15 15 15 15 15 14 15 15 14 15 15 15
10 11 11 12 14 14 16 16 17 17 17 18 18 18 17 17 18 17 17 16 16 16 16 16 16 16 16 15 15 15 15 15 16 15 15 15 14 15 15 15 15 15 15
10 10 11 12 13 14 16 17 17 17 17 18 18 18 18 18 18 17 17 16 17 16 16 16 16 16 16 16 15 15 14 14 15 16 16 15 15 15 15 15 16 16 15
11 12 12 12 13 14 15 16 17 17 17 18 18 18 18 18 18 17 17 17 17 17 16 16 16 16 16 15 15 14 14 15 14 15 15 15 15 15 15 16 16 16 16
12 12 12 11 12 13 14 15 16 17 17 18 18 17 17 17 17 17 17 17 17 17 16 16 15 15 14 14 15 15 14 15 16 15 15 16 15 14 14 16 16 17 17
12 12 12 12 11 12 13 14 15 16 16 17 17 17 17 17 17 17 17 17 17 17 16 16 15 14 14 13 13 14 14 15 16 16 16 16 16 16 16 16 16 16 18
12 11 12 12 12 12 12 14 16 16 17 17 17 17 17 17 17 17 17 17 17 16 16 16 15 15 14 13 13 14 15 16 17 17 17 17 17 16 17 17 17 17 17
11 11 12 12 13 15 15 15 16 16 16 17 17 17 17 17 17 17 17 17 16 17 16 16 15 15 14 13 14 15 16 16 18 17 17 18 17 16 17 18 19 20 20
11 11 12 14 15 16 16 16 17 17 17 17 17 17 17 17 17 17 17 17 16 16 16 15 15 15 14 13 15 15 16 17 18 18 17 17 17 16 15 18 19 20 20
12 13 15 17 17 17 16 16 17 17 18 18 17 17 16 16 17 17 16 16 16 15 15 16 16 16 16 14 15 16 17 18 19 19 19 15 16 15 15 18 19 22 22
14 17 17 16 17 18 17 18 19 19 18 18 17 17 17 17 17 16 16 16 16 16 16 17 18 17 17 16 15 15 17 19 20 20 19 18 16 17 16 16 18 20 22
16 16 18 18 20 18 18 18 19 19 18 18 18 18 18 16 16 16 16 16 17 18 19 20 20 19 19 16 15 15 16 18 21 20 19 19 17 18 17 18 18 19 22
16 18 18 19 20 20 18 19 20 19 19 18 19 19 18 16 15 16 16 17 17 19 20 20 22 22 20 19 16 15 16 17 21 20 19 19 19 21 23 19 20 24 26
16 18 19 20 20 20 18 19 19 18 18 19 18 17 17 16 16 16 17 18 19 20 21 23 24 24 22 20 19 19 21 19 23 23 24 21 22 22 24 26 26 26 27
18 18 18 19 19 20 21 21 19 18 18 17 17 17 17 17 18 18 18 19 21 20 23 26 24 25 27 23 19 22 25 29 25 34 35 34 32 32 31 32 31 29 29
20 20 19 19 20 20 20 20 18 17 17 17 17 17 18 19 20 20 21 17 18 16 16 17 21 25 18 16 15 15 17 17 22 37 39 38 38 35 36 36 35 33 32

GFSMW_con_lsi_171.txt.gz
Lid_Strength_Index
9 9 9 9 9 10 9 9 9 9 8 5 2 1 2 4 6 7 7 8 8 7 6 5 4 3 3 4 4 3 2 1 1 1 1 1 2 2 2 4 4 4 4
10 10 10 10 11 11 11 10 10 10 9 7 5 2 4 6 7 8 9 9 9 8 7 7 7 7 5 6 6 5 4 2 3 2 3 4 3 3 5 6 6 5 6
10 11 11 11 12 12 12 11 11 11 10 9 4 5 5 6 7 8 10 10 10 10 9 8 8 8 7 7 7 7 6 5 4 4 3 5 5 4 3 7 6 5 7
10 11 12 12 12 13 12 12 12 12 11 10 5 4 5 7 9 10 11 11 11 11 10 10 9 9 9 9 8 9 8 6 7 6 6 5 4 5 6 5 7 7 8
11 11 12 12 13 13 13 13 12 13 12 11 9 8 9 9 10 11 12 12 12 12 11 11 11 11 10 10 10 10 9 9 9 9 8 7 6 6 5 6 7 8 8
13 13 13 13 13 13 13 13 13 14 13 12 12 10 10 11 11 12 13 13 13 13 13 13 12 12 11 11 11 11 10 10 10 10 10 10 10 10 9 9 9 10 8
14 14 14 14 13 13 13 13 14 14 14 14 13 13 13 12 13 13 13 14 14 14 14 13 13 12 12 12 11 11 11 11 11 11 12 11 12 11 10 10 11 10 9
14 13 13 13 13 13 13 13 14 15 14 14 14 14 14 14 14 14 14 15 15 15 14 14 14 13 13 12 12 12 12 12 12 13 13 13 12 12 12 12 12 12 11
14 13 13 13 13 13 13 13 14 15 15 15 15 15 15 15 15 15 15 15 14 14 15 15 14 14 13 13 13 13 13 13 13 13 13 14 14 13 13 13 12 12 12
13 13 13 13 13 13 13 14 14 15 15 15 15 15 15 15 16 15 16 15 15 15 15 15 15 14 14 13 13 14 14 14 14 14 15 14 14 14 13 13 13 13 13
12 11 12 12 12 13 14 14 14 14 15 15 15 15 16 16 16 16 16 15 15 15 15 15 15 15 15 14 14 14 14 15 15 14 15 15 14 14 14 13 13 14 14
11 11 11 11 12 13 14 14 14 15 15 15 16 16 16 17 17 16 16 15 16 15 15 15 15 15 15 15 15 15 15 16 16 15 15 15 14 14 14 14 14 15 14
11 11 11 12 12 13 13 14 15 15 15 16 17 17 17 17 17 16 16 15 15 15 15 15 16 15 15 15 15 15 15 15 15 15 15 15 14 14 14 14 15 15 15
10 11 11 10 11 12 13 14 15 16 16 17 17 17 17 17 17 16 16 16 15 15 15 15 15 15 15 15 15 15 15 15 15 15 15 15 14 14 14 15 15 16 16
11 11 11 10 10 11 12 13 14 15 16 16 17 16 16 16 16 16 16 16 15 15 15 15 15 14 15 15 15 15 15 15 15 15 15 15 14 14 14 15 17 16 18
10 11 11 11 11 11 11 12 14 15 15 16 16 16 16 16 16 16 16 16 16 15 15 15 14 15 14 13 14 15 15 15 15 15 15 15 15 15 15 15 15 16 18
10 11 11 11 11 11 11 12 13 15 15 15 15 15 15 15 15 15 15 16 16 15 15 15 15 15 14 13 14 14 15 16 16 16 16 16 16 16 17 17 17 17 17
10 11 11 11 11 12 12 13 14 14 15 15 14 15 15 15 15 15 15 16 15 15 15 15 15 14 14 14 14 15 15 16 17 17 17 17 17 15 17 18 19 18 20
10 10 10 11 13 13 14 14 15 15 15 16 16 16 15 16 16 16 16 16 16 16 15 15 15 15 14 14 13 15 16 17 18 17 17 17 17 14 15 18 20 20 21
11 12 13 15 15 16 15 15 16 16 16 16 16 16 15 15 16 16 16 15 15 15 15 16 16 15 14 14 14 15 17 18 19 18 18 14 16 15 15 18 20 22 23
13 15 17 16 16 17 16 17 17 17 16 16 16 16 15 15 15 15 15 15 15 15 16 17 16 16 16 15 14 15 17 18 19 19 18 17 16 16 16 17 19 20 23
15 15 17 16 18 18 17 17 17 17 17 17 16 16 16 15 15 15 15 15 15 17 18 18 18 18 18 15 15 16 17 17 19 19 19 18 17 18 17 18 19 21 24
15 17 16 17 19 19 17 17 18 18 18 18 18 18 16 15 15 15 15 15 16 17 19 19 20 20 19 17 15 14 16 17 20 19 18 18 19 21 22 20 21 25 26
15 17 18 18 17 19 18 17 19 18 18 18 18 17 16 15 14 13 14 15 17 18 19 20 21 21 20 19 18 19 18 18 21 21 22 21 21 22 25 26 26 26 27
17 18 17 16 15 19 19 20 19 17 17 17 16 15 14 14 14 14 15 15 16 17 19 21 22 22 21 20 18 21 23 25 25 30 29 28 28 28 28 29 29 28 28
17 18 18 18 18 20 20 20 19 17 18 17 17 16 15 15 15 16 16 15 16 14 15 17 19 21 17 15 15 17 18 18 22 30 29 30 30 29 29 30 29 29 30

GFSMW_con_lsi_174.txt.gz
Lid_Strength_Index
5 6 7 7 7 6 6 6 6 5 3 1 0 0 0 1 3 5 6 5 5 4 3 2 2 1 1 2 2 2 1 0 0 1 1 1 1 1 2 2 2 4 6
8 7 7 8 7 8 7 7 7 6 4 2 0 -1 1 3 5 6 7 7 6 5 5 4 4 4 3 4 4 3 2 1 1 2 2 4 3 3 4 4 4 5 6
7 8 8 8 8 8 8 8 7 7 5 4 1 2 3 3 4 5 7 8 7 6 6 5 5 5 4 5 5 5 5 4 2 2 2 4 5 3 4 5 4 6 7
7 7 8 8 9 10 9 8 8 8 7 5 2 2 2 3 6 7 8 8 8 7 7 6 6 6 6 7 7 7 6 5 5 3 3 3 3 5 5 6 6 7 8
7 8 9 9 10 9 9 9 9 9 8 6 4 3 4 6 7 7 8 8 8 8 8 8 8 8 8 8 8 8 7 7 7 6 6 5 4 4 5 6 7 7 7
9 9 10 10 10 10 10 9 9 10 9 8 7 6 6 7 7 8 8 9 9 9 9 9 8 9 9 9 9 8 8 8 8 8 8 8 8 8 7 6 6 8 8
10 10 11 11 11 10 10 10 10 11 10 9 9 8 8 8 8 9 9 9 9 10 10 10 10 10 10 10 9 9 10 9 9 9 10 10 10 9 8 8 9 9 8
10 10 10 10 11 11 10 10 11 11 10 10 10 10 10 9 10 10 10 10 10 11 11 11 11 11 11 10 10 10 10 10 10 11 11 11 11 10 10 10 10 10 9
10 10 10 10 10 11 11 10 10 11 11 11 11 11 11 11 11 11 11 10 10 12 12 12 12 11 11 11 11 11 11 11 11 12 12 12 12 11 11 11 11 10 11
10 10 10 10 10 10 10 11 11 11 11 12 11 11 11 11 11 11 11 11 12 12 13 13 13 12 12 11 11 12 12 12 12 12 12 12 12 12 12 12 11 11 11
10 10 10 10 10 10 10 10 10 11 12 12 11 11 12 12 12 12 12 12 13 13 14 13 13 13 13 12 12 12 13 13 13 13 13 13 12 13 12 12 12 12 12
8 8 9 9 9 9 9 10 10 10 11 11 11 12 12 12 13 13 13 13 14 14 14 13 13 13 13 13 13 13 13 13 14 13 13 14 13 13 13 13 13 13 12
8 8 8 8 8 8 9 10 10 11 12 13 13 13 14 14 14 13 13 13 13 14 14 14 14 14 14 14 13 13 14 14 14 14 14 14 13 14 13 13 13 13 13
8 7 7 7 7 7 8 9 10 11 12 13 13 13 13 13 13 13 13 13 13 13 14 14 14 14 14 13 14 13 14 14 14 14 14 14 14 14 14 14 14 14 14
8 8 7 7 7 7 8 9 9 11 11 12 13 13 13 13 13 13 13 12 12 12 12 13 13 13 13 13 13 14 14 14 15 15 15 14 14 14 14 14 14 15 15
8 8 8 8 8 8 8 9 10 11 11 11 11 11 12 12 12 12 12 12 12 11 11 12 12 12 12 13 13 13 14 14 15 16 15 14 14 15 15 15 15 16 17
7 7 8 8 8 8 9 8 8 9 10 10 11 11 12 12 12 12 12 12 12 12 12 12 12 12 12 13 13 14 15 15 15 15 15 15 15 16 16 17 17 17 16
6 7 7 8 7 7 8 9 9 10 11 11 11 12 12 12 12 12 12 12 12 12 12 13 13 13 13 13 14 15 15 15 15 15 15 16 15 16 16 17 17 18 18
4 5 6 7 8 9 9 10 11 11 11 11 12 12 12 12 13 13 13 12 12 12 12 12 13 13 13 13 14 14 15 16 16 16 16 16 15 15 16 17 19 19 20
7 8 8 9 9 10 11 11 12 12 12 12 12 12 12 12 12 12 13 12 12 12 12 13 12 12 13 13 13 14 15 17 17 17 16 15 15 15 17 18 19 21 22
9 10 11 10 10 12 12 12 12 12 11 12 12 12 12 12 12 12 12 12 12 12 13 13 13 13 13 13 13 15 16 16 17 17 16 15 16 16 16 18 19 20 22
11 10 10 10 11 13 13 12 12 11 13 13 13 13 13 12 12 12 12 12 12 13 13 14 14 14 14 14 14 16 16 16 16 17 17 16 17 17 18 18 20 21 22
11 11 11 11 13 14 13 13 11 14 15 15 15 14 13 12 11 11 12 12 11 12 14 14 15 16 15 15 14 16 16 16 17 17 17 17 19 20 19 20 22 24 22
12 12 13 13 12 14 15 13 14 15 16 15 15 14 13 13 12 11 11 11 12 13 14 15 16 17 16 16 16 15 16 16 17 17 19 20 20 22 24 24 23 23 24
12 13 13 12 11 13 14 15 15 16 15 15 15 13 13 13 13 12 12 11 11 12 14 15 16 17 18 16 15 16 17 19 20 23 23 23 23 23 24 24 25 24 24
11 13 13 14 12 14 15 16 16 16 15 14 14 14 14 14 13 13 12 11 12 12 12 13 16 16 15 14 15 16 18 19 20 23 23 23 23 23 24 24 24 24 26